Temp
7 6 6 7 7 6 5 5 5 5 5 6 6 6 6 6 6 6 6 6 6 6 5 5 6 6 5 5 5 4 4 4 4 4 4 4 4 4 4 4 4 4 4
7 7 6 6 7 7 6 5 4 4 5 6 6 6 6 6 6 6 5 5 5 5 5 5 5 5 4 4 4 4 4 4 3 3 3 3 4 3 3 3 3 3 3
7 7 7 7 6 7 6 5 4 4 5 5 5 5 5 6 6 6 5 5 5 5 5 5 5 4 4 3 3 3 3 3 3 3 3 3 3 3 2 2 2 2 2
6 6 6 7 6 6 6 4 5 4 5 5 5 5 5 5 6 5 5 4 4 4 4 4 5 3 3 3 3 3 3 3 3 3 2 2 2 2 2 2 2 2 2
3 3 4 5 4 4 4 6 4 3 4 5 5 5 5 5 5 5 5 4 4 4 4 3 2 2 2 2 2 2 2 2 2 2 2 2 2 2 2 2 2 1 1
2 2 2 2 3 4 3 3 3 3 3 4 5 5 5 5 5 5 4 4 4 4 4 3 2 2 2 2 2 2 2 2 2 2 2 1 1 1 1 1 1 1 1
2 2 2 2 3 3 4 3 2 2 2 4 4 4 5 5 5 5 4 4 4 3 3 2 2 2 2 2 2 1 1 1 1 1 1 1 1 1 1 1 1 1 1
1 1 1 2 2 3 3 3 2 2 2 3 4 4 4 4 5 4 4 3 3 3 2 1 2 2 2 1 1 1 1 1 1 1 1 1 0 0 -0 -0 -0 0 -0
1 1 0 1 1 2 2 2 1 2 2 3 3 3 4 4 4 4 3 3 3 3 2 1 1 2 1 1 1 1 1 1 1 1 0 0 -0 -0 -0 -1 -1 -2 -1
1 0 -0 -1 0 1 1 2 1 2 2 3 3 3 4 4 4 3 3 3 2 1 2 2 2 1 1 1 1 1 1 0 0 0 -0 -0 -1 -1 -1 -2 -3 -3 -3
0 -0 -0 -0 -0 0 1 1 1 2 2 3 3 4 4 4 3 4 3 3 2 2 3 2 1 1 1 0 0 0 0 0 -0 -0 -1 -1 -1 -2 -2 -3 -3 -4 -4
-1 -1 -1 -1 0 0 0 1 1 1 2 3 3 3 3 3 4 3 2 1 2 2 2 1 1 0 0 -0 -0 -0 -0 -0 -1 -1 -1 -1 -2 -2 -3 -3 -4 -4 -5
-1 -2 -2 -1 -1 1 0 0 0 0 1 3 3 3 3 3 3 2 3 0 2 2 1 0 -0 -0 -0 -1 -1 -1 -1 -1 -1 -1 -2 -2 -3 -3 -4 -4 -4 -5 -5
-3 -2 -3 -1 -1 1 -0 -1 1 1 2 3 3 3 3 3 2 2 2 0 1 1 -1 -0 -0 -1 -1 -1 -2 -2 -1 -2 -2 -2 -3 -3 -4 -4 -4 -5 -5 -6 -6
-3 -3 -2 -1 -2 -0 -0 0 1 1 2 3 3 2 3 2 2 1 2 1 -0 -1 -1 -1 -1 -1 -2 -2 -2 -2 -2 -2 -2 -3 -3 -4 -4 -4 -5 -6 -6 -7 -7
-3 -3 -3 -2 -1 -1 -1 -0 0 1 1 2 3 2 3 2 1 2 1 0 -0 -1 -1 -1 -1 -2 -2 -2 -2 -3 -2 -3 -3 -4 -4 -4 -5 -6 -6 -7 -7 -8 -9
-3 -3 -4 -1 -0 -1 -1 -1 -0 0 1 2 2 2 2 1 1 1 0 -2 -1 -1 -2 -2 -2 -2 -2 -2 -3 -3 -3 -3 -4 -4 -4 -5 -6 -7 -7 -7 -8 -9 -11
-3 -4 -3 -1 -1 -1 0 0 1 2 2 2 1 1 1 -0 -1 -1 -2 -1 -1 -2 -2 -2 -2 -2 -2 -3 -3 -3 -4 -4 -4 -5 -5 -6 -7 -7 -8 -8 -9 -10 -11
-2 -2 -2 -1 -0 1 1 0 -0 1 1 0 1 -0 -0 -1 -1 -2 -1 -1 -2 -2 -2 -2 -3 -2 -3 -3 -4 -4 -4 -4 -5 -6 -7 -7 -8 -8 -9 -10 -11 -11 -12
-2 -1 -1 -1 -1 -0 1 0 0 1 -0 -1 -1 -1 -1 -1 -2 -2 -2 -2 -2 -2 -3 -3 -3 -3 -4 -4 -4 -4 -5 -5 -6 -7 -8 -8 -9 -10 -11 -12 -11 -11 -12
-1 0 -1 -0 0 0 0 -1 -1 -1 -1 -1 -2 -1 -2 -3 -2 -2 -2 -3 -3 -2 -3 -3 -3 -4 -4 -4 -4 -5 -6 -6 -7 -7 -8 -9 -11 -11 -12 -12 -12 -13 -13
-1 -1 -0 -1 -1 -1 -2 -2 -2 -1 -2 -2 -3 -3 -3 -2 -2 -3 -2 -2 -2 -3 -3 -4 -4 -4 -4 -5 -5 -6 -6 -7 -7 -9 -10 -11 -11 -12 -12 -13 -13 -13 -13
-1 -1 -2 -1 -1 -2 -3 -3 -2 -2 -2 -2 -2 -3 -3 -3 -2 -2 -2 -3 -3 -3 -4 -4 -4 -5 -5 -6 -6 -7 -7 -8 -9 -10 -11 -12 -12 -12 -13 -13 -14 -14 -14
-1 -1 -2 -2 -2 -2 -2 -2 -2 -2 -3 -3 -2 -2 -2 -2 -3 -3 -3 -3 -3 -4 -4 -5 -5 -5 -6 -6 -7 -8 -8 -9 -10 -11 -12 -12 -12 -13 -13 -13 -14 -14 -14
-1 -1 -1 -2 -2 -2 -2 -2 -2 -2 -2 -2 -2 -2 -2 -3 -3 -3 -3 -4 -4 -5 -5 -5 -5 -6 -7 -7 -8 -8 -9 -10 -11 -11 -12 -12 -13 -13 -13 -14 -14 -14 -14
-1 -1 -1 -1 -2 -2 -2 -2 -2 -2 -2 -2 -2 -3 -3 -3 -3 -4 -4 -5 -5 -5 -5 -6 -6 -7 -7 -8 -9 -10 -11 -11 -12 -12 -12 -13 -13 -13 -13 -14 -14 -14 -14
Height
3069 3070 3072 3075 3077 3082 3087 3090 3090 3091 3094 3095 3100 3103 3105 3107 3107 3108 3111 3113 3114 3115 3115 3116 3116 3116 3116 3116 3116 3116 3115 3114 3113 3111 3109 3108 3106 3105 3102 3100 3098 3095 3095
3059 3062 3063 3065 3068 3072 3076 3081 3081 3081 3086 3087 3092 3097 3099 3099 3102 3105 3105 3106 3107 3109 3109 3110 3110 3110 3111 3111 3111 3111 3111 3110 3109 3107 3106 3103 3103 3101 3098 3095 3092 3090 3088
3050 3052 3054 3056 3057 3061 3065 3070 3073 3073 3076 3082 3081 3086 3091 3091 3095 3098 3100 3101 3102 3103 3104 3104 3104 3105 3106 3106 3106 3106 3106 3106 3105 3103 3102 3098 3096 3094 3092 3089 3087 3084 3081
3040 3042 3043 3045 3047 3049 3055 3059 3062 3065 3067 3068 3073 3079 3084 3087 3089 3092 3094 3096 3096 3097 3098 3098 3099 3100 3101 3102 3102 3101 3101 3101 3100 3099 3096 3093 3091 3088 3087 3084 3080 3077 3074
3035 3035 3035 3037 3040 3042 3043 3048 3052 3055 3057 3057 3065 3071 3076 3079 3083 3086 3087 3089 3091 3092 3092 3093 3093 3095 3096 3097 3097 3097 3097 3096 3095 3093 3090 3088 3084 3081 3078 3077 3074 3071 3066
3029 3029 3028 3028 3028 3031 3035 3037 3041 3045 3048 3049 3055 3062 3068 3071 3077 3079 3080 3083 3085 3086 3087 3087 3088 3090 3091 3092 3092 3092 3092 3090 3089 3087 3084 3081 3078 3073 3068 3063 3062 3058 3058
3020 3020 3020 3019 3020 3020 3023 3027 3030 3035 3039 3042 3046 3052 3058 3065 3070 3071 3074 3077 3078 3079 3080 3081 3083 3085 3086 3087 3087 3087 3086 3084 3083 3080 3077 3074 3070 3066 3060 3055 3051 3046 3046
3014 3010 3011 3011 3012 3013 3012 3015 3019 3025 3030 3034 3039 3044 3047 3058 3062 3064 3067 3070 3071 3073 3074 3077 3078 3080 3081 3082 3082 3081 3080 3078 3076 3073 3070 3067 3062 3057 3052 3046 3039 3033 3031
3008 3005 3002 3000 3004 3004 3004 3007 3008 3016 3022 3026 3031 3035 3042 3050 3054 3058 3060 3063 3065 3067 3069 3071 3073 3075 3076 3076 3076 3075 3074 3071 3069 3066 3062 3058 3054 3049 3043 3037 3031 3023 3015
2999 2997 2996 2994 2997 2997 2997 2998 3001 3008 3013 3018 3022 3030 3038 3043 3047 3051 3054 3057 3059 3061 3063 3065 3067 3069 3070 3070 3070 3068 3067 3064 3061 3057 3054 3049 3043 3038 3032 3027 3021 3016 3008
2991 2990 2990 2989 2991 2990 2990 2991 2994 2999 3001 3006 3015 3026 3032 3037 3040 3044 3049 3051 3054 3056 3058 3060 3062 3064 3065 3065 3064 3062 3060 3057 3053 3049 3044 3040 3033 3028 3022 3017 3012 3006 3000
2985 2984 2983 2983 2983 2983 2982 2984 2988 2990 2991 3002 3012 3020 3026 3030 3035 3039 3042 3046 3048 3050 3052 3055 3056 3058 3059 3059 3057 3055 3052 3049 3044 3039 3034 3028 3022 3017 3012 3006 3001 2994 2987
2980 2976 2974 2976 2976 2977 2976 2978 2980 2981 2990 3000 3009 3015 3021 3025 3029 3034 3037 3040 3042 3044 3046 3049 3052 3053 3053 3052 3050 3047 3044 3040 3035 3030 3024 3018 3011 3006 3001 2995 2988 2982 2975
2971 2970 2969 2970 2970 2970 2971 2972 2974 2981 2990 2998 3006 3011 3016 3020 3025 3029 3031 3035 3037 3039 3043 3045 3047 3047 3047 3045 3042 3040 3035 3030 3025 3019 3013 3007 3001 2995 2989 2982 2977 2970 2964
2964 2964 2964 2963 2964 2964 2965 2967 2974 2982 2989 2995 3001 3006 3011 3017 3020 3023 3027 3029 3032 3035 3038 3040 3040 3040 3040 3037 3034 3030 3025 3020 3015 3009 3003 2997 2990 2983 2977 2970 2964 2958 2951
2955 2957 2957 2957 2958 2960 2964 2967 2974 2981 2986 2991 2996 3002 3005 3010 3015 3019 3022 3026 3029 3031 3034 3035 3035 3034 3033 3028 3024 3020 3015 3010 3004 2999 2993 2987 2981 2974 2967 2960 2954 2947 2938
2946 2949 2951 2951 2954 2958 2964 2968 2974 2978 2983 2989 2993 2997 3001 3005 2998 3010 3018 3021 3025 3027 3029 3028 3028 3026 3025 3019 3014 3011 3006 3000 2994 2988 2982 2976 2970 2963 2957 2950 2944 2938 2931
2943 2945 2945 2948 2951 2957 2964 2967 2973 2978 2983 2988 2992 2992 2998 2994 2997 3008 3014 3019 3022 3023 3024 3023 3021 3018 3014 3009 3005 3001 2996 2990 2984 2978 2971 2965 2958 2953 2946 2938 2932 2927 2921
2941 2942 2944 2947 2951 2956 2962 2968 2973 2980 2985 2988 2990 2983 2996 3000 3002 3011 3013 3015 3017 3018 3017 3016 3012 3008 3004 3001 2997 2992 2986 2980 2975 2969 2962 2955 2948 2941 2935 2928 2921 2916 2911
2944 2946 2947 2951 2956 2961 2966 2970 2975 2981 2982 2982 2985 2994 2997 2998 3005 3008 3011 3012 3012 3011 3010 3006 3003 2999 2995 2991 2988 2982 2977 2971 2965 2960 2953 2946 2939 2931 2924 2917 2911 2907 2902
2950 2953 2955 2958 2961 2963 2967 2972 2975 2979 2977 2981 2987 2995 2999 3000 3004 3007 3007 3007 3007 3005 3001 2999 2995 2991 2988 2984 2979 2974 2967 2961 2955 2949 2943 2936 2928 2922 2916 2909 2904 2899 2894
2956 2959 2960 2962 2963 2966 2973 2976 2979 2983 2986 2990 2993 2997 2998 3001 3002 3003 3003 3001 2999 2997 2994 2991 2988 2984 2980 2974 2969 2964 2957 2951 2944 2938 2931 2925 2919 2913 2908 2902 2898 2893 2889
2967 2968 2969 2971 2974 2976 2978 2983 2986 2986 2988 2991 2993 2995 2998 2999 2999 2998 2996 2995 2992 2990 2988 2985 2981 2977 2972 2966 2961 2954 2948 2941 2934 2928 2923 2916 2910 2905 2901 2896 2891 2887 2883
2974 2974 2975 2977 2979 2980 2982 2984 2987 2989 2991 2993 2995 2996 2995 2994 2993 2992 2991 2989 2987 2985 2982 2979 2975 2970 2964 2958 2952 2945 2939 2932 2926 2921 2916 2909 2904 2898 2894 2891 2886 2882 2877
2978 2978 2979 2980 2982 2983 2985 2988 2990 2991 2991 2992 2992 2991 2991 2991 2990 2988 2987 2985 2982 2980 2976 2971 2967 2961 2956 2949 2942 2935 2929 2923 2917 2911 2906 2902 2898 2894 2890 2886 2882 2878 2873
2980 2981 2982 2984 2985 2987 2989 2989 2990 2990 2991 2991 2991 2990 2989 2988 2987 2985 2983 2980 2977 2973 2969 2963 2958 2952 2945 2939 2933 2927 2921 2914 2908 2904 2899 2895 2891 2889 2886 2882 2878 2873 2869
Wind_Speed
27 31 32 35 42 46 47 39 43 46 43 42 38 36 33 32 33 33 32 32 31 30 30 28 26 27 23 21 20 18 17 17 17 18 20 19 21 22 23 25 27 29 29
30 30 33 36 36 39 47 47 47 50 49 47 43 38 37 36 33 31 28 32 32 32 31 29 27 25 23 21 18 17 15 15 16 17 19 21 22 22 23 26 28 29 31
25 25 32 36 39 37 39 50 55 54 55 48 49 45 40 39 33 31 31 33 30 30 30 29 27 24 22 20 18 16 14 14 17 19 21 25 26 27 27 28 29 31 32
22 23 29 34 39 40 38 42 51 55 55 53 52 48 44 40 34 29 29 30 30 29 30 28 25 21 21 20 18 16 15 16 18 20 24 26 29 31 30 31 32 33 34
22 22 22 27 34 41 41 40 43 49 50 54 51 48 46 42 34 30 30 31 29 29 31 28 24 23 21 20 18 17 17 19 21 24 27 30 32 35 36 34 33 34 36
22 23 29 32 33 34 44 43 41 45 48 49 47 49 47 42 33 32 34 33 31 31 31 28 25 23 22 21 19 18 19 21 24 27 31 34 36 39 42 42 39 40 38
22 27 33 36 39 37 35 45 46 46 46 48 47 45 45 38 33 34 33 32 31 33 30 25 31 25 24 22 21 21 22 24 27 31 34 37 39 41 44 44 44 44 42
29 28 33 37 30 36 37 35 52 49 46 45 46 44 45 36 34 34 32 31 34 33 27 27 27 26 25 24 23 23 25 27 30 34 38 40 42 43 45 45 47 49 46
23 28 33 38 25 25 32 34 46 53 47 45 45 45 41 36 34 34 33 34 34 31 24 29 29 27 26 25 25 25 27 31 34 39 42 43 44 46 45 45 46 48 50
25 35 34 34 19 21 26 31 33 41 46 45 46 41 36 34 33 33 34 30 32 27 29 26 28 28 27 26 26 28 30 34 39 42 44 45 46 46 46 46 44 44 48
26 32 35 35 27 26 23 31 30 34 43 47 45 37 35 34 34 32 33 30 29 30 27 27 28 28 27 27 28 31 34 38 43 46 46 46 47 46 45 43 44 45 48
22 24 29 28 26 26 23 28 30 35 43 41 39 37 36 35 33 32 29 29 28 26 28 29 29 27 27 29 30 33 37 43 46 47 47 47 47 46 44 44 46 48 50
22 26 26 26 21 24 20 25 27 38 40 36 37 36 35 35 28 28 33 26 27 28 29 29 28 27 28 30 32 37 42 47 46 47 47 47 46 44 44 46 48 50 51
20 28 31 33 20 23 20 23 36 35 35 32 34 33 33 29 28 34 34 31 28 28 28 27 27 27 29 33 37 40 45 45 46 46 46 45 44 45 47 49 49 50 50
25 26 31 34 17 18 23 29 31 30 27 30 32 33 33 33 33 31 25 26 26 24 25 26 25 28 34 36 39 43 43 44 45 45 43 43 45 47 49 50 50 51 52
32 32 28 26 16 15 23 25 26 28 27 30 33 33 30 41 30 34 30 21 21 23 24 25 33 32 35 38 41 41 42 43 43 41 42 44 46 47 47 47 48 49 49
20 24 24 19 15 16 24 23 25 27 27 28 30 31 37 26 41 20 26 18 22 21 29 30 31 34 37 39 38 39 41 40 41 42 44 45 46 46 46 48 48 46 42
16 19 24 15 14 19 22 23 27 27 26 25 26 33 28 27 15 14 12 15 25 26 24 29 33 36 36 35 37 38 38 39 41 43 45 46 46 46 47 48 46 41 37
7 11 9 12 18 22 23 20 22 24 24 24 28 28 26 12 10 15 16 17 19 23 28 31 31 32 33 33 35 36 39 41 42 43 44 45 46 47 46 45 42 37 33
5 5 10 14 17 18 19 22 23 23 25 22 15 4 4 5 8 10 13 19 23 25 26 27 29 31 32 33 35 38 40 42 44 43 43 43 44 43 41 40 39 35 31
20 17 15 18 16 23 22 19 17 17 9 9 10 5 5 5 8 15 17 18 21 23 25 27 28 29 31 34 37 39 41 44 44 44 43 40 40 39 37 35 33 31 29
18 17 13 15 17 15 14 11 11 9 9 9 8 3 3 9 11 12 16 19 21 24 25 26 28 31 34 36 39 41 42 44 45 44 41 40 38 35 32 30 28 27 28
12 13 13 14 14 14 16 11 8 7 7 3 2 4 6 8 12 15 18 20 21 23 25 27 29 32 35 38 40 41 42 43 43 41 39 37 34 31 27 25 26 26 28
8 8 9 9 10 11 10 10 6 4 2 3 5 7 10 12 14 17 18 19 21 24 26 28 31 34 37 39 41 42 42 42 40 38 34 32 29 26 25 23 24 25 26
5 4 6 5 5 5 6 2 3 4 5 8 10 11 12 15 16 17 18 20 23 25 27 31 34 36 38 41 43 43 42 41 39 36 32 28 24 20 20 21 23 23 25
6 5 5 4 3 3 2 5 6 6 8 9 10 13 14 14 16 17 20 22 24 28 31 34 37 39 42 43 43 41 39 38 35 31 29 24 21 19 19 19 20 22 24
Wind_Direction
259 252 249 246 241 235 230 231 244 247 249 251 249 252 256 258 261 267 272 266 267 273 278 279 275 270 264 263 267 274 281 293 307 315 319 322 319 315 308 303 300 298 297
257 250 249 249 248 245 234 224 236 246 246 248 250 250 253 256 263 268 261 260 265 271 276 278 273 265 259 257 261 269 281 298 309 316 320 322 321 317 312 308 303 299 297
268 258 251 246 250 246 241 231 229 239 248 245 248 249 251 256 261 264 253 254 262 270 274 277 272 261 252 253 260 268 282 296 308 315 323 325 323 321 318 310 307 302 301
290 268 247 244 244 249 241 238 236 237 245 247 246 250 253 258 261 263 256 254 261 266 269 272 268 254 246 251 258 270 285 296 305 313 318 321 322 319 315 313 308 305 304
285 275 266 246 243 243 245 239 236 238 241 246 245 248 251 253 255 251 248 252 256 261 269 265 257 255 243 250 258 271 285 296 304 311 315 317 318 318 315 311 306 304 305
252 254 253 252 246 236 237 239 240 234 237 245 245 245 249 250 249 248 242 249 253 261 269 261 244 253 243 250 260 273 285 295 303 310 314 316 316 317 317 314 311 308 308
231 245 251 259 256 245 235 231 231 237 237 241 244 243 246 245 244 245 243 249 255 257 263 253 245 249 244 253 263 276 288 297 304 309 313 314 314 315 315 312 310 309 307
255 258 258 262 265 260 241 231 227 230 236 235 238 241 242 238 244 237 236 240 249 257 255 238 249 241 245 255 267 279 289 298 305 309 312 313 312 313 313 311 310 309 308
250 257 263 263 262 262 263 239 230 228 231 232 232 236 239 235 239 231 236 242 252 255 237 243 239 237 247 259 271 282 292 300 305 307 310 310 310 312 311 310 310 309 309
250 253 263 265 270 265 261 254 238 232 230 229 227 231 230 233 226 229 238 246 251 233 243 231 234 239 250 263 275 286 295 300 304 306 308 309 309 310 310 309 309 308 307
245 246 257 274 277 271 267 245 232 229 224 222 223 222 226 222 223 232 239 243 240 235 236 234 235 245 256 269 280 289 296 300 304 305 306 307 308 309 309 308 307 307 307
256 275 279 283 276 273 276 236 226 224 223 216 216 218 221 220 223 233 238 233 236 236 234 234 239 249 262 274 284 293 296 302 304 305 305 307 308 308 308 308 309 309 308
274 274 275 282 272 269 268 230 224 216 213 210 212 215 215 220 222 231 230 235 238 232 231 236 244 256 268 280 290 294 299 302 303 303 304 307 307 308 308 309 309 309 309
274 266 274 281 273 261 227 219 210 212 213 206 211 213 216 219 224 214 232 234 236 232 236 242 253 266 278 287 290 295 300 302 302 303 305 307 308 309 310 310 310 309 309
253 263 266 272 275 257 205 211 204 211 206 205 207 209 214 210 213 229 229 231 235 231 241 249 263 273 281 285 292 297 300 301 302 305 307 309 310 310 311 311 311 311 311
255 254 265 257 263 217 204 209 212 210 202 200 204 209 212 204 224 212 233 234 220 234 247 262 268 276 283 289 293 300 300 302 305 306 308 309 310 311 311 310 311 311 311
255 240 255 258 244 211 204 216 209 193 196 204 206 209 209 228 202 214 222 232 238 250 260 266 275 282 285 291 302 300 303 305 307 309 310 310 311 311 310 310 310 310 308
260 250 249 236 210 202 199 203 194 195 197 212 220 209 219 195 179 201 212 245 262 263 268 274 280 283 294 301 301 304 305 307 308 310 312 313 312 311 311 310 310 311 309
240 231 219 198 187 187 192 185 188 189 198 218 216 190 204 200 210 236 253 255 263 269 276 277 290 299 301 303 303 306 307 308 310 312 313 313 313 313 311 309 312 313 315
102 144 166 159 160 152 164 183 178 192 197 181 146 169 210 196 228 248 258 264 272 276 287 296 299 303 305 306 307 308 309 311 313 314 315 314 312 311 312 312 314 317 317
106 111 123 137 155 169 172 150 164 162 134 124 99 152 195 195 248 262 268 275 284 292 298 301 305 306 306 307 309 311 311 313 315 316 315 314 313 314 313 313 316 318 317
98 123 128 120 105 92 103 106 92 99 110 121 130 185 257 246 259 274 281 292 298 301 306 307 307 309 310 312 313 314 315 316 315 317 318 317 316 315 316 315 316 317 317
86 97 97 111 131 137 123 120 133 111 99 128 195 263 277 282 292 298 300 303 308 308 307 309 311 312 313 312 314 316 317 317 317 318 319 317 318 317 318 319 318 319 321
93 96 104 117 131 131 121 120 109 118 302 309 292 299 302 303 304 305 308 309 306 308 311 312 312 313 314 316 319 320 319 317 316 317 317 317 320 321 321 320 319 321 322
101 117 114 109 108 102 94 49 334 311 310 307 306 307 306 307 309 308 307 308 310 312 314 316 315 317 320 320 320 320 319 316 316 319 320 320 320 319 318 320 321 321 321
225 226 188 200 179 144 240 284 289 298 298 299 302 306 307 306 305 307 311 314 316 318 319 319 321 322 322 321 320 318 316 315 318 320 320 321 323 323 323 322 322 322 322